Theta_e
333 335 338 338 339 342 344 346 347 348 349 350 350 349 350 350 350 351 351 351 351 350 349 347 345 345 345 345 344 346 347 349 351 352 355 357 359 359 359 360 360 361 359 355 351 357 353 353 354 356 356 357 357 354 353 353 354 355 358 360 358 351 351 355 353 349 344 345 345 345 346 348 354 358 354 352 349 351 351 352 354 355 355 354 356
330 333 335 336 339 341 344 345 347 345 348 349 348 348 350 350 350 350 350 350 351 351 350 348 347 346 345 344 344 346 348 349 349 351 354 357 359 359 361 360 360 361 363 358 356 353 353 354 355 356 357 357 356 357 355 361 363 359 356 355 354 352 351 354 355 347 345 339 341 341 343 343 350 353 352 352 351 350 350 351 352 351 352 353 355
328 332 333 335 338 341 343 344 346 347 348 349 349 349 349 349 349 350 349 350 350 351 350 348 348 349 347 347 346 347 350 352 351 354 357 356 358 359 361 360 360 360 362 361 356 353 353 354 355 356 356 358 360 357 357 356 357 358 355 354 353 350 353 356 357 348 343 344 343 341 335 335 344 342 343 347 349 350 350 349 350 349 350 352 354
326 329 331 334 337 340 342 343 344 346 347 348 347 348 349 349 348 348 349 350 350 352 352 349 349 350 350 350 350 350 350 356 354 356 355 356 356 358 360 360 360 360 361 361 358 355 354 354 355 355 356 360 357 356 356 355 356 357 357 361 353 350 347 350 357 350 350 347 340 336 334 333 333 338 338 343 343 345 349 349 350 349 350 351 354
326 328 330 333 336 338 340 342 344 344 346 346 346 347 348 348 348 348 349 349 350 354 353 350 352 350 352 353 356 354 354 352 351 352 354 356 356 357 358 360 360 360 361 361 360 355 355 355 356 355 356 358 357 356 355 355 354 356 357 359 353 351 348 348 351 354 350 351 349 343 338 335 333 335 335 341 340 343 343 345 350 351 349 351 352
327 328 330 333 336 338 340 341 342 343 344 346 346 347 348 348 348 348 349 350 350 352 352 351 351 348 348 348 347 347 346 347 347 348 351 353 355 357 359 360 360 360 360 361 360 357 355 356 356 356 356 358 359 356 355 356 356 356 357 357 355 351 352 348 347 354 350 358 349 348 349 341 341 341 336 337 342 345 344 342 342 345 348 350 352
327 329 331 333 335 337 338 339 340 341 343 345 345 346 347 347 348 348 349 350 351 353 352 353 349 349 349 348 349 347 346 347 350 352 352 354 357 356 358 359 360 360 360 360 360 359 357 356 357 357 356 356 363 357 356 356 355 357 359 357 356 360 352 345 344 345 347 349 354 351 352 353 346 344 339 337 336 340 342 343 341 340 341 343 346
326 328 331 333 336 337 337 339 339 341 343 343 343 345 346 347 347 348 350 351 351 353 351 352 349 348 348 348 350 348 348 347 349 352 354 357 355 357 357 358 359 359 359 358 360 361 358 357 357 357 356 356 362 359 358 357 358 358 361 358 357 360 350 351 346 347 344 343 355 350 352 352 349 345 344 342 336 334 339 343 344 343 339 340 343
326 328 330 333 335 336 338 338 340 341 342 342 343 344 346 347 348 349 349 351 351 353 351 351 351 349 349 349 349 350 350 349 352 356 354 358 354 356 356 357 358 358 358 357 358 360 362 358 357 357 356 356 364 361 360 360 359 358 357 358 357 355 354 352 350 350 346 348 348 349 347 348 345 348 348 348 342 337 338 338 340 345 341 340 340
327 329 332 334 336 337 338 339 339 340 341 343 343 345 346 347 348 348 348 350 351 351 352 351 351 352 349 348 349 349 351 350 351 352 353 355 354 354 356 356 357 357 357 357 357 358 361 361 358 357 357 356 362 360 360 360 360 359 358 357 355 353 354 353 358 354 350 351 348 348 346 347 346 346 344 343 341 340 336 338 340 339 340 344 342
326 329 332 334 336 337 338 337 338 339 341 342 342 344 345 346 347 347 348 349 351 351 351 350 351 351 349 349 349 348 349 349 348 349 351 352 352 353 354 355 356 356 357 357 357 358 359 362 359 358 358 361 362 360 359 359 358 358 358 357 356 353 352 356 355 354 351 353 349 349 347 346 345 342 344 343 341 340 339 337 337 341 340 340 347
325 329 331 333 334 335 336 336 337 338 339 340 342 344 345 346 347 346 347 348 350 351 351 350 350 351 350 350 349 349 349 349 347 348 350 351 352 352 354 354 354 355 355 355 356 357 359 360 362 360 361 360 360 360 360 359 359 359 358 357 355 354 356 356 352 351 351 349 348 348 350 349 351 348 345 348 345 344 338 339 340 342 346 342 343
324 327 330 331 332 333 334 335 336 337 338 340 341 343 345 346 346 345 345 347 348 350 349 350 350 350 350 350 349 350 350 350 349 348 349 351 351 351 352 352 352 353 354 354 355 356 359 358 358 359 359 361 361 360 360 359 360 359 358 356 354 354 355 355 354 352 353 352 351 350 349 349 349 349 348 346 345 345 341 341 341 341 343 344 349
326 326 329 330 331 333 335 335 335 336 338 339 341 344 345 345 346 345 345 346 347 349 349 348 349 350 350 351 350 352 351 351 350 349 349 351 351 352 352 352 352 353 354 354 356 356 358 359 360 359 360 360 362 361 360 360 361 359 358 357 355 355 354 356 356 353 354 355 353 353 351 352 351 348 349 347 346 344 344 342 344 343 342 343 345
332 325 328 329 331 333 334 335 335 336 338 339 341 343 344 344 345 346 345 345 346 348 348 348 348 349 350 351 351 352 352 352 351 351 350 350 351 352 353 353 353 354 355 356 358 357 358 359 359 359 359 359 361 362 363 362 363 360 360 357 358 355 355 355 355 353 353 354 352 354 354 353 351 352 350 352 347 346 347 349 348 341 340 338 342
338 328 326 328 330 333 334 335 336 336 338 339 341 343 344 344 345 345 345 345 345 348 348 348 349 349 350 350 350 353 356 354 354 355 352 351 351 352 352 353 354 355 356 358 358 358 357 358 360 360 359 359 360 361 360 360 360 360 358 359 357 358 356 355 355 353 352 353 353 352 353 351 352 352 352 354 353 350 353 346 347 344 343 339 340
336 336 333 327 329 332 334 335 336 337 337 339 340 343 344 344 345 345 345 346 345 347 347 348 349 349 349 350 350 352 354 353 352 353 352 352 353 353 353 354 354 356 356 359 358 359 358 358 358 359 360 360 360 361 361 361 360 361 360 358 357 357 359 357 355 355 354 352 352 353 354 354 354 355 354 354 355 357 354 349 353 351 347 343 341
336 337 338 338 334 331 334 335 337 337 337 338 341 343 344 345 345 344 345 344 345 346 347 348 348 349 349 349 350 352 353 354 354 354 354 352 353 355 355 354 354 356 357 359 359 359 358 362 359 359 360 361 361 361 362 361 361 360 360 360 359 358 357 358 357 355 355 354 355 355 354 353 354 353 353 351 353 355 355 355 354 351 351 346 345
336 336 338 338 338 337 333 334 337 338 340 339 341 342 343 345 346 345 345 345 345 346 348 349 349 349 350 350 350 351 353 354 355 356 355 353 352 354 355 355 355 357 359 359 359 358 358 359 360 359 359 361 361 361 362 362 362 361 360 360 359 358 357 356 357 357 356 356 355 354 353 353 353 353 353 352 354 356 355 354 355 353 350 353 347
335 336 337 340 342 345 343 334 334 336 338 339 341 342 342 343 346 346 346 347 347 346 348 347 348 349 350 350 350 352 354 354 354 355 355 354 353 354 356 355 356 358 358 357 358 358 358 357 358 359 359 359 361 362 362 362 361 362 361 360 360 359 357 356 356 356 356 357 355 354 354 354 354 353 354 353 354 356 356 354 355 354 351 350 350
334 335 336 338 340 345 343 342 338 338 340 341 341 342 342 343 345 346 345 346 346 346 347 348 349 349 350 349 349 349 352 354 354 354 355 355 355 356 356 357 358 357 358 357 357 358 358 358 358 359 359 360 360 361 362 362 361 361 361 361 361 359 358 358 358 357 356 356 356 355 355 354 354 353 354 354 353 354 358 356 354 352 354 353 352
333 334 336 337 340 342 342 343 344 341 340 339 341 343 343 343 345 347 347 347 347 346 347 348 350 350 349 349 349 349 351 353 353 354 355 355 355 356 357 358 356 357 358 357 358 358 358 358 357 358 359 359 360 361 361 362 361 360 360 360 360 359 358 358 358 358 359 357 357 356 355 354 354 353 354 353 354 352 351 353 353 354 353 354 353
333 334 335 337 338 341 342 342 343 343 342 340 343 343 344 345 346 348 347 348 350 349 349 349 350 350 350 351 350 350 350 351 352 352 353 354 355 356 357 357 356 357 358 358 358 358 358 358 358 358 358 359 360 359 360 361 361 360 360 360 361 360 359 358 357 357 358 359 357 356 356 355 355 355 355 354 353 353 351 351 352 353 353 353 353
332 334 335 337 338 340 340 340 342 342 343 343 344 345 346 347 348 349 348 350 351 352 352 351 350 350 351 351 351 351 351 351 351 351 351 353 354 354 356 356 356 356 356 357 358 358 358 358 357 358 358 358 358 359 360 360 360 360 360 360 361 361 360 359 358 358 358 358 357 357 356 357 357 357 357 357 355 352 352 353 352 353 353 353 354
331 332 334 336 338 338 338 339 340 341 342 344 345 346 346 347 348 348 348 350 350 351 352 352 352 351 351 351 351 352 351 351 351 351 351 352 353 353 354 354 354 354 354 355 356 357 357 357 356 357 357 357 358 358 359 359 360 361 361 360 360 360 360 360 360 360 360 360 358 357 358 358 357 356 356 356 356 355 355 352 351 352 352 353 353
330 331 333 334 335 337 337 338 339 340 341 342 344 345 346 347 347 348 347 348 349 350 351 351 352 351 350 350 351 351 351 351 352 352 352 352 352 352 351 353 353 353 353 353 353 354 355 356 357 358 358 358 358 358 359 359 359 360 360 360 361 361 360 360 360 360 360 360 359 359 359 359 357 356 356 357 357 356 355 353 353 354 353 352 352
330 331 332 333 333 334 335 337 340 341 341 342 343 343 345 345 346 347 347 346 347 347 346 348 350 351 350 350 350 350 352 351 352 352 352 352 352 351 351 351 353 352 351 350 350 352 354 355 356 356 357 357 358 357 358 359 359 360 360 360 359 360 360 360 360 360 360 360 359 359 360 359 358 358 357 357 358 357 355 356 356 356 355 353 352
329 330 331 331 332 333 335 337 338 340 342 343 343 343 343 344 344 346 346 346 346 346 345 343 344 347 347 349 350 350 351 350 351 352 352 352 351 351 351 351 352 351 351 350 350 349 350 353 354 355 356 357 357 357 357 358 358 358 358 359 359 359 359 359 359 360 360 359 359 359 359 359 359 360 359 359 359 358 358 356 357 356 356 354 353
327 328 330 331 332 333 334 336 338 339 340 341 342 343 344 342 342 343 345 346 348 347 346 346 346 347 346 347 348 349 351 354 352 350 351 350 350 349 348 348 349 349 348 348 349 349 349 350 352 354 355 355 355 355 356 356 356 357 358 357 358 358 358 358 358 358 358 359 359 359 359 359 361 363 361 360 359 359 358 357 358 358 357 355 355
327 327 328 330 331 332 333 335 336 336 337 338 340 342 343 342 342 343 345 346 348 349 348 347 347 347 348 348 349 350 350 350 349 348 348 348 348 349 348 346 347 348 349 351 349 348 347 347 349 351 353 353 354 355 356 348 350 357 356 356 356 357 357 357 357 357 356 357 357 358 359 362 362 362 361 357 350 352 357 359 360 360 358 357 355
321 321 324 327 330 331 332 333 334 334 334 334 335 337 340 343 345 346 346 347 348 346 347 348 347 348 348 348 348 348 348 347 346 346 346 346 346 348 347 346 345 346 348 351 350 348 346 345 345 347 349 350 353 354 347 337 336 340 355 356 355 356 356 356 356 356 356 356 356 356 357 360 363 363 361 354 348 345 345 347 348 357 361 359 356
321 323 325 328 329 330 330 330 330 330 331 331 332 334 336 336 338 341 343 345 345 345 344 345 347 347 347 347 347 347 347 346 345 345 346 347 348 347 347 347 348 347 349 350 349 350 349 348 347 347 346 348 351 350 337 334 334 332 341 355 355 355 354 354 354 355 355 355 355 355 356 356 357 359 360 362 358 352 344 342 341 343 343 348 353
322 324 325 326 326 327 327 327 327 327 329 331 332 331 331 332 332 334 337 337 339 340 340 341 343 344 345 345 346 346 346 347 347 346 346 346 346 347 348 349 349 351 350 350 350 350 351 351 349 348 349 349 349 343 333 332 330 329 330 342 352 355 354 353 354 354 354 355 356 356 355 355 355 360 361 361 361 359 351 345 342 342 343 342 336
321 323 323 324 324 324 325 326 326 326 327 328 330 330 331 333 333 333 332 332 331 332 334 336 339 342 343 344 345 346 346 346 347 347 346 347 347 346 346 347 348 349 348 349 348 348 350 351 352 352 352 352 353 342 327 326 324 323 325 332 345 349 352 353 354 354 353 354 354 354 354 354 355 356 358 358 359 359 358 357 356 355 354 353 348
320 321 322 322 322 323 324 325 325 327 327 326 326 327 328 330 331 331 332 330 330 330 330 331 332 332 336 341 344 344 344 343 343 343 343 341 341 341 341 343 343 343 343 345 346 346 348 348 348 351 352 351 349 330 327 325 322 320 321 329 341 344 346 349 351 353 354 354 355 353 354 354 355 355 356 356 355 354 354 353 352 351 351 352 353
320 320 320 321 321 322 322 323 326 325 326 326 326 327 326 327 328 327 328 328 328 328 329 330 331 332 333 335 340 340 339 339 339 340 340 340 340 340 340 343 342 342 344 346 346 347 346 346 348 347 347 347 344 325 323 322 321 320 325 339 340 341 342 344 347 350 352 355 354 353 353 354 354 354 353 343 350 357 354 352 351 350 350 350 349
319 319 319 321 323 323 324 325 324 324 325 325 326 326 325 325 326 326 327 326 326 326 326 328 329 330 332 333 336 340 340 339 340 340 340 340 340 340 342 342 340 341 342 343 344 345 346 347 347 347 347 346 343 330 320 318 319 320 331 340 341 342 343 343 344 345 347 348 349 353 355 354 354 354 348 334 331 342 350 350 350 350 350 349 349
318 319 319 320 321 322 324 322 322 322 323 323 322 322 322 322 322 323 324 325 325 325 326 326 326 328 330 331 332 334 338 341 340 339 339 340 342 341 341 342 341 341 341 342 343 342 342 343 343 343 345 342 341 333 318 316 317 319 332 341 342 342 341 342 343 343 344 345 346 349 350 352 355 354 331 322 323 339 346 347 347 347 346 346 348
317 317 316 317 318 319 320 320 320 319 321 323 322 321 320 320 320 320 321 321 322 324 325 325 325 327 328 331 332 333 333 334 335 337 339 339 341 341 342 342 341 342 342 342 340 337 337 338 340 340 343 341 340 336 318 316 315 317 333 343 344 345 345 345 345 346 347 348 348 349 349 348 342 331 316 317 319 334 343 344 346 345 344 344 346
316 316 317 318 320 318 317 317 317 318 320 320 320 321 322 318 318 319 318 319 321 322 324 326 325 327 330 332 332 334 333 332 332 333 335 336 339 338 338 338 338 337 337 338 338 336 334 335 337 337 337 340 340 336 326 314 313 315 320 342 341 341 341 343 345 347 347 348 349 350 347 324 316 314 312 311 313 317 336 340 342 342 342 342 346
315 316 320 314 314 314 314 314 315 318 319 319 318 317 318 319 318 316 317 318 320 323 325 326 325 325 327 329 330 331 330 331 331 330 331 331 331 332 333 332 333 332 333 332 333 334 333 333 334 335 335 336 340 337 327 313 312 313 317 329 335 335 335 338 340 343 343 344 346 347 348 325 317 317 314 312 311 315 323 338 340 342 344 344 340
319 319 315 313 312 313 313 313 314 316 318 318 318 318 317 317 317 316 317 318 321 322 324 325 325 326 326 327 328 329 330 329 331 330 328 327 329 330 330 330 329 328 327 327 328 330 330 331 332 333 334 333 337 339 335 319 313 311 311 314 330 331 330 336 336 337 337 339 339 341 343 338 318 314 311 308 307 310 314 333 340 324 322 321 335
312 313 315 314 312 312 312 313 314 315 317 319 319 318 318 317 316 317 318 319 321 322 324 324 325 325 327 326 326 327 328 328 328 329 327 326 327 327 327 327 326 325 324 323 324 324 324 325 326 327 330 331 333 336 332 332 318 309 308 311 311 321 321 335 333 332 333 334 336 338 340 335 317 310 307 307 308 308 315 329 319 316 315 316 326
312 313 313 314 312 312 312 313 314 315 316 318 319 319 319 317 315 318 319 320 320 322 323 323 325 323 324 326 326 326 326 327 328 327 327 325 325 325 325 325 323 322 320 320 322 323 323 322 322 323 324 326 329 331 334 330 328 316 310 308 309 310 313 324 330 331 332 332 332 331 329 314 307 304 305 308 309 312 322 315 313 312 314 319 330
312 313 314 313 311 311 312 312 313 315 315 315 317 318 318 315 315 319 320 319 321 325 323 321 321 321 323 322 322 323 324 325 325 326 326 326 325 324 321 322 322 320 320 320 321 322 321 322 321 321 322 324 327 329 327 328 327 326 316 311 311 312 313 313 323 327 328 326 319 311 308 308 310 308 309 311 315 320 315 312 311 313 326 334 336
312 312 312 311 311 312 312 312 312 314 314 315 314 314 314 314 316 318 320 321 323 324 323 321 322 322 321 322 320 320 321 322 324 325 325 324 324 324 322 320 319 320 321 321 321 321 320 320 320 320 321 323 325 325 323 323 327 326 323 316 313 315 319 318 322 322 319 316 314 314 315 317 321 325 335 339 339 341 328 323 323 328 337 337 338
310 312 312 310 311 311 312 312 311 312 312 312 312 312 313 314 315 317 320 323 323 322 322 321 321 322 323 323 320 319 319 321 321 321 322 323 322 321 321 321 319 318 319 321 320 321 319 319 319 318 320 322 323 323 320 320 320 320 320 320 320 320 319 320 323 322 321 323 327 329 328 321 322 324 326 326 326 332 338 342 343 343 343 341 340
311 311 311 310 310 311 311 311 311 310 311 311 311 311 311 312 313 315 319 322 322 321 319 320 321 322 322 322 324 326 321 319 320 319 318 318 320 320 320 319 319 318 318 317 318 319 318 317 317 318 320 320 320 321 318 314 316 315 315 316 318 318 315 317 319 318 319 325 330 330 328 333 333 334 333 333 333 335 336 335 338 339 341 343 343
309 310 311 309 311 311 311 312 310 310 310 310 310 310 311 311 312 313 317 319 319 320 320 320 320 320 320 321 319 319 319 318 318 319 319 318 317 317 318 319 321 321 320 318 318 318 318 316 318 318 318 318 319 319 317 306 309 303 306 310 316 314 313 317 317 308 318 326 328 326 324 324 325 324 325 325 326 326 327 327 328 329 332 334 333
309 310 309 311 312 311 311 311 309 310 310 309 309 309 310 311 312 312 314 317 318 316 316 317 318 318 318 317 316 316 316 317 317 317 318 318 318 310 313 318 318 317 310 305 308 316 316 317 318 319 320 318 317 317 305 297 296 296 296 297 298 298 299 310 308 311 322 322 320 319 318 317 317 318 319 320 321 321 323 323 323 323 328 330 330
309 308 309 309 310 312 312 311 310 311 310 310 309 309 309 310 311 312 312 313 315 315 313 314 316 315 315 314 314 314 314 314 315 316 316 316 316 317 304 303 308 311 305 298 299 300 301 306 319 319 318 308 305 300 297 296 296 295 295 295 296 298 299 301 302 318 319 317 316 314 314 314 313 314 315 315 316 316 317 318 318 321 324 325 324
Wind_Speed
8 9 9 10 9 8 7 8 8 7 6 8 9 8 8 7 7 7 6 6 7 6 6 6 5 5 3 4 4 4 3 3 3 2 2 2 3 3 3 3 3 3 3 4 4 3 3 2 2 1 1 1 1 2 2 2 1 1 1 1 3 5 3 3 2 2 4 4 4 4 5 2 2 3 4 3 4 3 3 3 3 3 3 4 4
6 6 8 8 7 8 8 7 8 10 8 8 9 9 8 8 8 6 6 6 7 7 6 6 5 5 4 4 3 4 4 4 4 3 2 2 3 3 2 3 3 3 3 3 3 4 3 3 2 1 1 1 2 2 2 1 2 2 2 3 2 2 3 2 2 2 4 2 3 5 5 6 3 2 2 3 3 3 3 3 3 4 5 4 2
7 9 9 9 9 9 8 8 9 10 10 11 9 8 8 8 7 7 6 7 6 7 7 6 5 5 5 4 5 3 3 3 4 3 3 3 3 3 3 3 3 2 2 3 3 3 3 3 2 2 2 1 1 2 2 1 1 2 3 3 4 1 1 2 3 2 1 0 1 2 3 6 5 5 2 3 3 3 2 4 3 4 5 3 2
10 10 10 10 9 9 8 8 8 8 8 7 8 9 7 7 7 7 7 7 6 6 6 5 6 4 3 5 4 3 3 3 3 2 2 2 3 2 2 3 3 2 2 2 2 3 4 4 3 2 3 2 2 2 2 2 1 1 2 2 2 4 4 3 2 1 2 1 4 2 2 1 4 4 5 5 1 3 3 3 2 4 4 3 2
9 10 10 10 9 10 11 10 8 9 9 9 9 9 7 9 8 8 8 8 6 7 6 5 6 5 4 4 4 3 4 4 3 1 3 3 2 2 3 3 3 2 2 2 3 4 4 3 4 3 3 3 2 1 2 2 1 0 1 1 1 1 4 2 2 1 1 0 3 1 2 3 1 4 4 4 3 3 1 2 3 4 4 3 3
11 11 11 11 12 9 8 8 9 8 9 10 10 10 8 8 8 8 6 6 7 7 7 6 6 6 6 6 6 4 4 5 5 5 4 4 4 3 3 3 3 3 3 2 2 3 4 4 4 3 3 2 2 2 1 1 0 1 1 1 1 2 1 2 3 2 2 0 1 1 3 1 3 3 2 4 5 1 4 3 3 3 2 3 3
9 11 11 11 10 10 9 10 10 10 10 8 8 8 8 9 9 9 8 7 6 7 7 6 6 6 7 7 7 6 6 4 4 4 5 5 4 4 4 4 4 4 3 3 3 3 3 3 4 3 3 3 2 2 1 1 0 1 0 1 2 1 2 2 4 3 3 2 2 1 1 1 1 1 3 1 5 6 4 3 3 2 2 3 4
10 11 12 13 13 13 13 12 11 11 9 8 8 8 9 9 9 9 7 7 7 6 7 7 7 6 6 6 6 6 7 6 5 5 4 4 5 4 4 4 4 4 4 4 3 3 4 4 3 3 3 3 3 3 2 1 0 0 1 1 0 1 2 1 3 2 2 2 2 3 2 3 2 2 3 1 1 2 6 4 2 3 2 2 3
12 11 12 12 13 13 12 12 12 9 9 9 10 10 9 8 8 8 8 7 7 8 8 7 7 7 6 6 6 4 5 5 4 4 4 4 5 3 4 4 3 4 4 5 4 4 4 4 4 3 3 3 2 2 1 1 1 2 2 1 1 1 1 1 2 1 1 2 3 3 2 3 2 2 1 2 3 3 3 3 6 5 3 2 2
10 13 13 13 13 14 14 13 11 11 11 10 8 7 7 8 8 8 8 7 7 8 8 8 8 7 7 6 7 5 4 3 4 5 5 5 5 5 4 4 4 3 4 4 4 4 4 4 4 4 4 3 2 3 2 1 1 2 2 3 2 2 0 1 2 1 1 1 2 2 4 3 3 1 1 3 2 3 1 4 3 4 6 6 3
9 10 11 13 13 13 11 11 12 9 7 8 8 7 7 8 9 9 9 7 7 9 8 8 7 7 7 7 8 7 6 6 5 5 4 4 5 5 5 5 4 4 4 3 4 4 4 4 4 4 4 3 2 3 3 3 2 2 2 2 3 4 2 2 3 2 1 3 2 2 3 2 1 1 4 2 1 0 3 3 3 1 2 5 4
9 9 10 9 7 7 8 9 9 8 8 9 8 7 7 8 8 10 7 8 7 8 8 8 7 7 7 8 8 7 8 7 7 7 7 7 6 6 4 3 4 4 4 4 4 4 4 4 4 3 3 3 3 3 3 3 2 2 2 2 3 2 2 3 3 2 2 3 2 0 1 1 0 1 2 2 3 1 1 3 2 3 1 3 4
9 9 9 8 9 10 9 8 6 6 9 11 10 10 8 8 9 10 9 8 8 8 9 8 7 8 7 7 7 6 7 8 8 7 7 7 6 5 5 5 4 4 5 5 5 5 4 4 4 4 4 4 4 3 3 3 3 2 3 2 3 4 4 3 2 2 1 2 1 1 0 1 2 2 1 2 1 1 2 2 1 1 1 3 3
7 9 10 10 10 10 10 10 10 10 10 11 10 9 9 9 9 10 11 9 8 8 8 8 8 7 7 7 7 6 7 7 7 7 7 6 6 7 6 6 6 6 6 6 5 5 4 5 5 5 5 4 4 4 4 3 3 3 3 3 4 3 2 3 2 3 2 1 2 1 1 2 2 1 1 1 1 2 1 1 2 1 1 2 2
5 7 10 11 11 12 11 11 11 11 11 10 9 9 8 9 9 10 9 8 9 9 8 9 7 7 6 6 6 6 6 6 6 6 7 7 6 6 6 5 5 6 6 5 4 5 5 5 5 5 5 5 4 4 3 3 3 3 3 3 2 2 3 3 3 3 2 1 0 0 1 2 2 2 1 2 1 2 1 2 1 5 4 2 4
3 3 7 9 10 11 10 10 11 10 10 9 10 9 9 9 10 11 11 10 9 9 8 8 7 6 6 6 6 6 5 5 4 4 5 6 7 7 7 6 6 6 5 4 5 5 5 5 4 5 4 4 4 4 4 4 4 4 3 3 4 2 4 4 3 3 2 2 1 1 1 3 2 2 1 1 2 2 2 1 3 4 3 4 3
6 6 5 5 7 9 10 11 10 9 9 10 11 11 12 10 10 10 9 8 9 9 9 7 7 7 7 7 6 6 6 6 6 6 6 5 6 6 6 6 5 5 5 5 5 5 5 5 5 4 4 4 4 4 4 4 4 4 4 4 4 3 4 5 3 3 3 2 1 2 2 2 3 2 2 1 2 2 2 1 1 1 3 2 2
8 7 6 6 5 5 8 9 10 11 12 12 11 11 10 10 11 12 10 10 9 9 9 8 8 8 7 7 7 7 7 6 6 6 5 5 5 5 4 4 6 5 5 4 5 5 5 5 5 5 4 4 4 4 4 4 4 3 4 4 4 3 3 3 3 3 3 2 2 1 2 3 2 2 3 2 3 3 2 2 2 2 2 1 3
6 6 6 5 4 6 6 7 8 9 9 10 9 9 8 8 9 10 12 12 12 8 8 6 7 6 6 7 8 6 6 6 5 5 4 5 5 5 5 6 4 5 5 5 5 5 5 5 5 4 4 4 4 4 3 3 3 3 3 3 3 2 3 4 3 3 3 2 3 3 2 3 2 3 2 2 2 2 3 2 1 1 2 2 4
5 6 6 5 4 5 2 6 7 8 9 9 9 8 9 8 8 8 6 4 5 7 7 8 8 7 7 6 6 6 6 6 6 5 5 5 5 5 5 5 6 5 5 5 5 5 5 5 4 4 4 4 4 4 3 3 3 3 3 3 3 2 3 4 4 2 2 3 3 4 4 3 2 2 2 2 3 2 2 2 2 1 1 1 2
4 4 5 6 5 5 5 3 6 6 5 6 8 10 9 8 8 8 8 8 8 7 7 6 6 6 6 8 7 7 7 5 5 6 6 5 4 4 5 5 3 5 5 5 5 5 5 5 5 4 5 4 5 4 4 4 3 4 3 3 3 3 4 4 3 4 3 3 3 4 4 4 2 3 3 2 2 2 1 1 1 1 1 2 3
6 6 6 6 6 6 4 4 4 7 8 9 7 6 7 8 7 7 7 8 8 7 8 7 6 6 6 6 6 6 6 5 6 5 5 5 4 4 4 3 5 5 5 5 5 4 4 5 4 5 5 5 5 5 4 4 4 5 4 3 3 3 4 4 3 4 4 3 3 4 5 4 3 4 3 3 2 2 2 3 3 3 3 3 3
8 7 6 6 5 5 5 6 5 7 8 9 8 9 8 7 7 7 8 8 8 8 7 7 7 7 7 6 6 6 6 6 6 5 6 5 5 5 4 5 5 4 4 5 5 5 5 5 5 5 5 5 5 5 4 4 4 5 5 4 4 4 4 4 4 5 4 3 3 4 5 4 2 3 4 3 2 3 2 3 4 3 4 3 3
10 9 8 7 6 4 3 4 5 4 4 6 8 8 9 8 8 8 8 8 7 7 7 7 7 7 7 7 7 6 7 6 7 6 7 6 5 5 5 5 5 4 4 4 5 5 5 5 5 5 5 5 5 4 4 4 5 5 5 5 5 4 5 5 5 5 4 4 4 4 5 4 3 4 4 4 3 2 3 3 4 3 3 4 2
8 9 9 9 9 8 7 6 6 6 4 3 5 8 9 9 9 9 8 7 6 6 6 6 7 7 7 7 7 6 7 7 6 5 6 6 6 5 5 6 5 5 5 4 4 4 5 5 5 6 6 6 6 6 5 5 5 5 5 5 5 4 5 5 5 5 5 4 5 5 6 4 3 4 4 4 3 4 3 2 3 3 3 3 1
6 8 9 10 8 6 4 4 4 5 7 7 5 2 3 6 8 9 9 7 5 3 4 6 5 6 7 8 8 7 7 8 7 6 6 5 5 6 6 5 6 6 5 5 5 4 5 6 6 6 6 7 6 6 6 6 6 5 5 5 5 5 5 5 5 5 5 5 5 6 6 5 4 5 5 5 4 5 4 3 4 4 4 2 2
6 5 6 6 6 6 5 5 6 6 4 3 5 8 7 7 8 7 9 10 10 9 4 2 2 5 7 8 7 7 6 6 6 5 4 5 6 6 5 6 5 6 6 5 5 5 5 5 6 6 6 7 7 6 6 7 6 6 6 6 5 6 6 5 6 6 6 6 6 6 6 6 6 6 6 6 5 5 4 5 5 5 4 3 3
5 5 4 5 6 7 7 6 5 5 5 4 3 3 3 2 4 4 4 3 1 4 9 10 7 4 5 4 4 4 4 4 4 4 5 5 4 5 5 5 4 5 5 6 6 7 6 6 6 6 6 5 6 5 6 6 6 6 6 6 6 6 6 6 6 6 6 6 7 7 7 6 7 6 6 6 6 6 4 5 4 3 3 3 4
6 5 4 4 5 6 7 8 7 5 5 5 4 4 4 4 4 1 3 4 3 2 1 4 5 4 4 3 3 4 4 4 4 4 5 5 4 2 1 2 3 3 1 2 3 3 4 5 6 7 7 6 5 6 5 5 6 7 6 7 7 7 6 6 6 6 6 6 6 6 7 7 7 9 10 10 8 7 5 5 5 4 4 4 4
6 5 5 5 6 7 7 7 6 6 5 5 4 4 6 6 6 5 4 4 4 4 5 5 4 5 4 4 4 4 4 4 4 4 3 3 4 4 4 3 3 3 2 2 2 1 2 4 5 5 5 5 5 5 7 12 10 6 6 6 5 6 6 6 6 6 7 7 7 7 7 11 12 12 12 12 12 12 11 8 6 5 5 5 5
5 5 6 7 8 8 7 7 8 7 5 5 5 5 6 6 6 7 7 6 6 5 4 5 7 6 6 5 5 5 5 4 4 4 3 3 3 3 4 4 3 3 3 3 3 4 3 1 2 3 4 5 5 5 10 11 12 12 7 6 6 6 6 6 6 7 7 7 7 7 7 9 10 10 11 12 13 13 13 13 13 12 9 6 5
7 7 7 8 8 8 8 8 8 7 6 6 5 5 6 7 7 6 4 6 7 7 6 5 6 6 6 6 5 5 5 5 5 4 4 3 3 4 4 4 3 2 2 1 3 3 2 2 0 1 3 4 5 7 9 8 9 10 9 6 5 5 5 6 6 7 7 6 7 6 6 5 6 7 7 7 9 12 13 13 13 13 13 12 11
7 8 8 8 8 9 9 8 7 6 6 5 5 7 8 7 9 8 8 8 8 7 7 7 6 6 6 5 5 6 6 6 4 4 4 4 4 4 4 4 4 3 2 2 2 3 4 3 3 2 1 1 2 4 7 8 8 9 10 8 5 6 6 7 6 7 7 7 6 5 6 5 6 9 8 7 7 8 9 12 13 12 12 11 12
8 8 8 7 7 8 8 7 7 7 8 7 8 8 7 7 7 8 11 10 10 9 9 8 7 6 5 5 5 5 7 7 7 6 6 6 6 6 5 5 5 5 5 5 4 3 4 4 4 4 3 3 3 5 7 8 8 7 5 7 5 6 7 7 7 7 6 7 6 6 6 6 6 6 6 6 6 6 6 6 6 6 6 8 9
10 9 9 8 8 8 8 8 8 7 6 7 8 8 8 8 9 10 9 10 10 10 9 7 7 7 7 7 6 7 7 7 7 7 7 6 6 5 6 5 5 6 7 7 6 6 5 4 5 5 4 5 7 12 10 8 7 7 5 3 4 5 5 6 6 6 6 6 6 5 6 7 6 6 6 6 6 6 6 6 6 7 7 7 7
9 10 9 9 9 9 8 7 6 7 7 7 7 6 9 8 9 10 9 9 9 10 8 7 7 6 7 8 7 7 7 7 7 6 6 5 5 4 4 4 5 5 4 4 5 5 6 7 6 5 5 6 8 15 13 12 10 7 4 2 0 1 3 4 5 5 4 4 4 5 5 6 6 7 8 8 8 5 5 6 8 8 7 7 7
8 8 7 6 8 10 8 7 8 7 7 7 5 6 8 9 10 8 8 9 10 9 7 6 7 7 7 7 6 5 5 6 5 6 5 5 4 5 5 3 4 4 4 5 6 5 5 6 7 8 8 7 7 11 13 11 11 9 4 3 2 1 0 2 3 4 4 5 5 4 4 5 5 6 7 8 8 5 6 7 7 8 7 7 8
9 8 7 7 8 8 8 9 9 8 6 7 7 7 8 9 8 8 10 10 10 8 6 5 6 6 6 7 7 6 5 4 4 4 4 4 3 3 5 4 5 6 8 8 6 7 8 8 9 9 9 7 8 12 12 11 11 10 6 4 2 2 2 2 3 3 3 3 5 8 7 5 5 4 8 9 6 2 4 6 6 7 8 8 8
9 10 9 8 8 9 7 8 9 9 7 8 9 10 9 8 8 8 8 8 7 6 7 7 6 5 6 7 8 8 7 8 8 7 6 7 7 6 5 5 5 6 7 7 8 7 7 8 8 9 13 10 8 9 12 11 12 11 7 4 4 4 4 5 4 3 2 2 3 3 6 5 4 5 7 6 5 2 3 4 5 6 7 9 8
8 8 8 8 7 10 11 10 9 7 5 7 9 10 9 9 8 8 10 8 7 6 4 3 5 6 8 9 8 10 8 8 8 8 8 7 7 7 8 8 7 6 6 6 6 7 8 8 7 8 8 8 7 6 9 13 13 14 12 6 4 4 4 3 3 2 2 2 2 3 2 7 5 5 5 5 5 3 1 2 3 4 6 9 5
10 9 8 9 8 10 9 8 6 5 6 6 8 10 9 7 8 10 9 7 6 5 5 6 7 7 8 8 6 8 8 7 7 7 7 8 7 8 7 6 5 6 7 8 9 7 8 8 7 7 7 7 5 4 7 12 14 15 15 10 5 5 3 3 3 3 3 3 3 3 2 3 3 3 4 4 3 1 2 1 3 4 6 7 7
7 9 9 10 9 9 9 8 6 6 6 7 9 9 7 7 9 9 7 6 5 6 6 7 8 7 7 7 7 7 6 6 6 6 8 8 6 6 6 6 7 8 10 10 9 8 7 7 6 6 7 6 7 10 5 10 13 14 13 13 7 6 5 4 4 4 4 4 5 5 5 3 8 9 9 7 6 5 6 3 5 9 10 10 7
9 8 7 9 9 8 8 7 5 6 6 6 9 9 6 6 8 6 5 5 5 5 6 7 7 7 6 6 7 7 6 4 6 6 8 7 6 7 7 7 8 9 9 10 9 7 6 5 5 5 5 6 6 6 8 7 10 12 12 11 9 6 10 5 3 3 3 4 4 5 6 11 15 16 14 13 11 10 5 6 9 9 8 7 6
7 7 8 10 10 7 8 7 6 6 6 6 8 8 7 8 7 4 4 3 4 5 6 7 5 5 6 6 5 6 6 6 6 6 7 8 7 7 7 7 7 7 7 7 6 6 5 5 5 4 5 5 5 5 7 12 10 12 11 11 10 10 8 6 5 4 4 5 6 6 8 14 15 14 13 12 12 10 8 11 10 8 5 3 3
10 8 7 8 10 10 8 8 7 8 6 6 6 8 8 8 5 5 5 4 5 5 6 6 5 5 6 5 6 6 6 6 6 7 7 6 7 7 8 7 7 7 7 6 5 5 5 4 5 5 5 6 6 7 8 10 13 11 10 11 11 10 10 10 6 5 6 6 8 12 13 12 12 12 12 11 8 9 11 10 11 9 6 3 3
9 8 8 8 8 8 9 9 8 7 7 7 7 7 8 3 3 4 4 4 5 6 6 6 5 5 5 6 7 7 7 7 6 6 6 5 6 6 6 6 6 6 5 5 5 5 5 4 4 4 5 5 5 5 6 6 7 8 7 10 11 10 12 12 8 6 9 10 10 11 11 10 9 7 6 4 4 5 8 9 9 8 3 3 3
10 8 9 9 9 8 8 8 8 6 6 6 8 7 5 3 5 4 4 6 7 7 6 6 7 6 5 5 7 5 5 6 6 6 5 5 5 5 6 5 5 5 5 5 5 5 4 4 5 5 4 4 5 5 5 4 5 5 5 6 6 7 11 10 9 8 8 7 8 9 7 9 6 9 7 5 5 7 6 5 4 3 3 3 3
8 7 8 8 8 9 8 8 7 5 6 6 6 6 6 6 5 5 5 7 8 8 7 7 7 6 6 6 6 11 8 5 5 5 5 5 5 4 5 5 4 4 5 5 4 5 5 4 4 4 4 5 5 4 4 4 4 5 4 4 5 6 6 5 6 6 6 6 6 7 9 8 9 8 8 8 8 9 9 9 9 9 8 6 6
9 7 8 9 8 8 8 8 6 5 6 7 7 6 6 7 6 5 6 8 7 8 7 8 7 7 7 7 6 6 5 5 5 5 5 5 4 4 4 4 3 3 3 4 5 4 4 2 2 3 4 5 5 5 4 3 2 3 3 4 5 5 4 5 6 6 5 6 7 8 8 9 9 9 8 8 8 8 8 8 9 9 9 9 10
7 7 7 8 8 9 8 7 6 5 6 7 7 6 6 6 6 6 7 7 7 7 9 8 7 7 6 6 6 6 5 5 5 4 4 5 7 5 4 4 3 5 6 4 3 4 2 1 3 3 3 4 3 2 5 6 5 3 2 2 1 2 3 5 7 8 4 7 8 7 8 8 9 8 8 9 9 9 9 9 9 9 9 8 9
8 8 8 8 8 7 7 7 6 5 6 6 5 5 6 6 7 7 8 7 6 7 6 6 6 7 7 6 5 5 5 4 4 4 4 4 4 5 6 6 5 4 7 7 4 5 6 6 4 4 4 6 5 2 2 4 5 5 6 7 8 9 9 9 8 5 7 8 7 7 7 7 8 8 8 9 9 9 9 9 9 9 8 9 10
Wind_Direction
196 191 188 187 175 162 155 157 159 162 168 169 170 174 168 169 162 170 161 149 147 149 151 150 150 140 116 165 172 174 179 181 181 193 199 181 169 161 166 180 188 176 162 155 170 169 144 144 133 141 151 112 116 243 270 306 331 89 334 352 359 2 331 359 37 51 26 357 342 342 329 301 254 199 212 216 225 230 226 241 247 264 259 258 263
175 182 186 182 171 156 150 153 157 162 175 174 180 177 171 164 171 165 156 160 161 163 161 164 164 170 155 173 164 158 172 176 187 203 203 189 171 161 159 176 192 192 167 168 159 165 151 145 136 123 127 158 247 287 300 333 29 51 7 5 42 11 313 324 349 1 22 37 354 330 338 325 336 349 282 260 246 233 225 228 231 250 260 258 267
180 186 178 182 175 162 157 163 175 176 173 176 178 172 168 167 170 162 168 168 169 169 162 169 169 168 159 162 163 144 183 179 164 157 177 183 174 166 162 174 183 193 173 164 161 170 160 147 148 134 154 198 245 293 343 350 43 48 56 54 341 9 302 306 352 33 41 351 213 26 5 356 332 352 336 284 270 253 226 234 233 245 256 266 254
184 180 182 181 174 167 161 170 175 170 167 171 176 174 172 172 168 167 173 173 170 174 172 165 159 150 133 143 146 142 162 150 127 111 162 167 196 166 173 175 175 192 195 154 152 164 165 172 145 145 178 208 196 248 306 268 142 84 69 75 84 349 3 326 18 293 145 38 3 12 287 43 347 336 328 301 278 246 224 236 232 250 265 264 238
181 182 180 174 172 176 176 175 165 173 176 179 177 176 178 176 172 172 173 175 173 175 165 150 139 122 113 107 109 79 73 91 112 141 187 191 174 175 197 174 168 174 203 174 165 171 170 162 161 168 178 183 156 172 243 261 283 148 133 86 73 355 336 330 307 252 360 226 138 44 357 21 224 267 334 285 355 350 323 283 239 244 255 250 250
178 181 179 176 179 179 173 164 172 179 184 187 181 176 171 172 167 170 173 171 174 175 154 154 156 152 143 145 152 149 137 153 180 188 184 183 196 182 160 168 169 164 179 188 183 147 169 178 163 165 181 165 172 174 183 109 69 20 183 189 236 219 230 50 322 313 26 44 135 182 163 148 287 292 21 327 322 274 284 270 259 260 253 251 253
186 178 174 174 179 175 176 175 181 184 192 180 176 175 172 171 168 169 174 174 176 166 156 157 152 162 166 166 164 167 167 201 192 185 179 194 174 168 175 163 173 165 170 179 170 170 162 172 177 183 178 177 158 126 161 198 204 237 18 176 249 180 152 50 352 314 343 56 16 58 45 28 101 27 345 260 353 324 340 345 338 309 256 250 254
182 182 178 177 176 178 181 184 182 191 181 173 178 175 169 174 169 169 172 173 176 162 162 164 162 171 168 170 171 170 178 186 184 186 179 165 173 181 167 179 171 176 163 176 169 166 160 175 185 176 178 185 174 170 189 165 102 334 279 293 354 207 165 91 12 8 52 321 6 45 53 100 82 135 164 88 182 321 333 327 251 313 311 235 245
179 178 181 178 179 183 183 183 190 179 173 181 184 180 172 169 170 165 169 173 174 167 166 172 168 171 173 169 177 187 175 175 162 161 162 169 175 176 182 189 184 186 176 172 179 170 174 172 178 183 188 199 194 184 184 146 197 291 305 245 198 179 207 151 86 46 70 39 355 6 11 45 19 73 128 143 108 26 306 356 326 325 335 1 340
185 181 180 182 183 184 186 184 176 183 183 185 180 169 169 163 166 166 173 173 172 171 172 174 171 166 169 178 179 174 164 135 154 167 172 170 181 187 191 189 195 191 194 180 174 181 180 170 171 185 198 197 212 211 201 153 203 237 245 241 205 179 16 199 74 145 148 146 96 125 25 337 7 6 19 39 69 83 93 316 323 346 345 307 320
183 183 185 185 185 183 172 179 189 180 174 171 173 177 171 170 168 172 176 173 173 172 172 178 174 172 176 178 179 172 169 156 157 168 159 164 183 187 186 199 187 199 184 194 187 180 187 184 180 191 187 191 200 203 222 228 225 237 250 208 191 178 181 157 80 69 105 83 50 48 91 75 77 307 299 315 5 354 1 324 317 239 263 317 305
181 177 182 185 177 172 175 183 179 179 167 172 176 169 175 177 174 172 170 173 177 172 173 179 177 181 181 176 179 178 168 168 174 174 179 181 184 186 189 175 200 197 197 189 201 191 184 191 193 183 188 180 195 199 218 217 219 208 205 192 196 191 165 132 116 90 87 95 78 321 137 204 172 236 280 213 197 229 176 279 294 320 305 236 287
175 178 174 172 174 174 178 178 167 171 181 180 178 176 175 178 180 175 180 174 177 173 177 177 180 184 182 181 185 176 178 178 178 176 180 182 182 182 171 191 188 201 207 198 203 193 184 187 186 187 196 192 183 187 212 206 210 205 199 190 182 192 194 164 133 155 155 97 122 208 82 249 329 273 221 248 255 161 177 296 315 144 283 310 318
178 175 177 175 175 181 178 170 178 186 186 184 180 177 176 179 182 185 185 178 172 176 178 176 186 186 184 183 184 177 184 183 183 180 180 185 180 185 185 186 187 204 198 210 201 187 192 197 193 198 196 188 186 196 202 204 196 210 201 190 203 209 178 181 149 151 178 173 165 125 360 329 356 339 301 183 202 163 226 336 322 312 180 308 295
168 181 180 180 180 179 175 177 183 185 185 180 181 182 178 180 181 189 184 184 178 180 177 182 184 185 184 187 183 184 187 188 190 185 178 179 185 182 192 187 191 200 204 207 188 189 196 193 199 197 194 195 192 197 195 194 196 193 198 208 199 182 198 184 187 175 189 166 169 148 307 315 336 352 297 293 200 244 219 183 75 22 350 359 355
88 183 192 185 183 179 176 181 182 183 183 181 180 178 184 188 187 190 188 184 184 180 184 183 184 176 179 186 189 188 190 189 188 185 184 185 183 188 192 193 199 197 198 182 194 186 188 193 198 206 198 197 201 203 201 199 197 200 205 193 212 179 193 203 214 192 213 197 193 173 315 295 298 316 302 272 241 246 252 129 115 111 76 347 334
120 126 170 195 187 183 183 182 179 176 178 184 183 185 189 185 186 193 193 186 186 186 182 181 176 174 184 187 188 190 188 184 188 191 188 188 186 192 188 194 184 185 188 185 180 187 187 186 193 201 198 200 207 213 209 207 200 206 208 201 217 202 197 219 206 211 233 169 184 203 234 273 280 287 302 278 261 231 213 209 191 162 160 85 316
147 145 131 134 155 192 192 184 180 180 183 185 187 187 188 187 187 187 186 188 194 186 183 181 180 182 181 186 192 193 192 193 190 190 182 176 193 191 183 176 192 186 182 184 175 182 182 191 186 199 202 198 206 214 216 220 206 219 219 219 221 194 213 218 212 207 234 193 192 192 213 265 267 281 297 287 274 260 235 223 222 214 158 216 187
129 110 85 83 120 162 186 191 183 181 184 187 183 178 183 193 194 190 190 192 189 187 185 183 183 183 181 187 184 191 197 194 192 185 171 183 195 191 197 203 180 174 177 179 176 182 177 186 182 197 198 206 205 213 215 222 212 226 230 238 236 206 221 244 232 205 219 202 231 250 216 244 243 266 283 296 290 258 256 214 245 146 232 150 175
119 113 107 104 82 46 95 169 173 179 180 181 175 175 185 189 186 194 194 187 180 189 183 186 190 184 179 175 186 187 188 188 186 177 182 195 202 193 202 193 198 177 183 179 184 187 181 184 192 194 201 205 209 210 203 210 210 227 233 237 241 208 230 244 257 230 235 213 227 249 252 251 232 222 259 272 284 264 241 242 189 191 213 205 152
70 73 75 72 65 71 68 103 161 163 171 171 177 183 183 177 185 183 180 178 188 192 184 191 177 189 177 183 184 185 192 185 176 178 184 200 203 200 203 216 170 192 174 177 188 195 188 189 193 197 200 202 204 212 196 187 193 219 227 240 237 214 228 248 257 266 248 233 237 247 254 252 229 248 251 253 254 244 193 216 183 168 199 168 174
87 81 82 77 83 91 87 80 118 151 166 170 175 165 169 178 178 175 172 183 184 186 190 177 175 178 185 186 185 183 186 187 185 180 187 191 199 204 208 194 205 208 183 190 190 194 191 187 195 200 199 202 204 212 207 191 199 206 223 215 224 215 229 247 245 261 259 249 248 257 263 261 227 242 260 260 248 245 214 204 197 198 207 209 200
115 111 98 98 110 120 127 122 123 145 160 168 165 169 173 171 167 174 178 186 180 186 187 178 175 175 185 181 174 181 185 192 194 189 193 189 190 195 190 200 218 215 202 203 199 196 195 190 199 207 203 204 208 213 207 204 210 211 217 219 215 213 224 235 237 247 256 261 262 256 267 270 244 251 252 260 261 260 253 238 240 203 218 218 199
123 122 122 124 123 119 114 98 68 49 98 147 165 168 164 164 170 168 172 171 171 175 178 182 179 183 182 174 183 182 182 188 199 202 200 195 187 187 181 195 210 214 209 218 211 206 200 200 204 210 208 211 209 214 211 212 218 220 222 226 217 217 223 232 240 248 251 246 252 262 262 256 255 260 266 265 261 259 260 255 263 259 242 247 207
125 126 131 135 142 157 166 147 127 120 101 141 172 170 166 166 161 157 152 149 150 152 165 182 183 183 181 183 188 182 186 193 203 202 212 199 196 189 183 194 196 207 211 205 219 213 213 206 213 216 216 212 214 210 211 214 217 216 222 228 228 223 227 231 235 238 244 235 241 245 255 250 229 246 258 259 258 264 250 243 252 255 248 255 245
121 129 137 148 155 147 123 113 138 149 164 166 146 92 137 154 156 149 141 132 116 105 150 159 174 187 191 191 191 190 195 196 197 199 203 205 203 202 194 193 192 201 201 205 210 210 212 218 220 223 219 222 216 210 211 219 219 216 215 222 225 227 227 228 232 233 233 229 236 239 247 246 241 235 252 252 243 248 248 245 249 245 240 242 253
121 125 134 139 145 142 133 129 144 151 152 149 142 146 160 167 160 161 152 148 149 139 117 16 323 215 193 197 195 198 198 198 196 198 198 195 200 204 204 203 192 198 193 200 199 203 212 215 226 225 224 218 218 212 214 214 218 219 220 223 228 226 228 225 229 231 234 234 234 238 240 236 236 233 243 249 250 247 238 241 232 242 236 228 247
102 111 116 118 118 117 117 121 118 122 128 128 133 133 130 124 130 99 83 69 6 170 159 155 181 254 283 227 169 142 154 160 161 170 187 202 205 207 209 213 205 210 211 207 201 200 204 201 212 217 224 224 222 217 212 213 215 215 219 226 227 231 235 235 235 234 233 234 234 237 239 236 232 235 233 240 231 244 234 248 238 226 230 227 244
118 113 108 109 102 84 75 76 87 103 121 116 106 106 91 88 104 48 53 90 101 301 228 154 170 184 188 169 144 148 153 167 168 166 176 177 175 162 131 130 151 166 185 233 227 221 215 216 221 220 218 213 214 219 211 208 210 214 213 225 224 226 233 238 243 245 242 241 241 241 243 241 235 237 232 235 234 225 227 240 240 210 226 224 239
125 115 103 94 82 74 69 71 78 82 76 80 98 139 152 163 182 181 163 140 137 184 166 152 158 164 153 145 148 149 149 156 154 157 139 122 126 130 133 130 107 106 90 48 18 360 216 225 232 232 228 219 221 217 219 215 213 213 210 222 223 228 229 231 237 244 248 241 241 241 243 243 243 245 246 243 241 238 234 233 239 213 218 224 228
94 76 70 68 76 72 67 69 74 74 73 60 71 78 117 144 159 170 168 151 145 162 148 145 143 141 137 140 147 152 150 146 133 117 119 125 137 133 127 120 114 103 94 66 55 38 16 295 230 241 241 240 243 235 229 221 219 222 221 212 220 232 227 231 232 232 243 242 240 238 240 246 248 248 248 248 247 245 243 243 246 245 238 223 228
103 94 86 85 83 80 72 67 67 69 66 69 46 41 56 61 76 80 98 112 121 133 136 133 123 122 127 135 143 145 142 138 137 143 143 127 90 81 80 82 83 71 79 92 84 78 60 11 267 177 213 230 246 260 261 250 235 228 224 229 227 234 233 235 236 236 239 241 242 241 239 236 237 238 243 246 247 248 248 249 249 249 248 245 241
107 107 100 94 89 83 82 78 79 70 59 45 69 65 56 47 60 63 62 61 72 78 77 67 74 89 101 109 114 117 119 123 129 123 108 99 94 87 81 79 80 89 95 65 54 80 73 64 41 24 22 317 305 339 337 308 271 241 223 220 238 232 234 237 236 237 242 247 248 248 252 242 244 239 241 240 242 254 252 250 254 258 260 246 237
100 98 98 94 88 86 81 79 74 72 75 73 69 71 66 63 64 63 69 68 64 53 52 49 51 49 53 58 72 91 95 99 109 111 105 97 84 75 64 61 67 66 68 62 47 35 39 51 50 42 34 39 56 31 15 360 354 331 277 215 224 231 238 245 244 243 245 244 240 241 249 253 243 243 244 243 242 245 253 260 259 250 252 258 247
119 113 102 93 90 83 79 71 62 59 51 62 65 72 71 67 66 58 58 66 67 63 58 59 57 55 50 51 47 44 59 59 64 72 74 72 82 81 74 66 61 59 55 50 46 46 39 31 29 32 46 47 39 18 36 37 24 9 3 217 247 247 248 250 251 249 253 255 255 247 247 254 260 246 227 227 238 245 251 256 260 260 254 251 250
123 116 106 106 98 87 79 67 59 60 54 49 52 61 71 61 65 73 68 69 65 67 56 47 47 44 69 69 54 68 70 69 62 56 63 68 66 70 80 78 84 74 67 65 53 57 54 50 44 40 34 39 35 24 17 19 27 26 28 94 93 260 274 283 285 292 293 280 271 260 256 263 266 268 269 258 255 262 251 251 256 259 261 258 252
97 89 93 98 101 96 90 79 67 54 53 48 46 56 64 63 59 57 62 63 62 60 59 51 50 40 37 54 70 61 72 74 86 91 82 70 57 64 71 79 92 101 101 80 66 46 42 52 53 44 50 49 37 21 22 23 24 24 34 63 66 70 305 295 294 297 299 302 302 293 273 272 276 278 287 294 286 264 257 258 263 270 274 279 274
99 94 91 87 85 85 80 86 78 61 54 60 55 58 60 60 58 54 53 52 50 45 35 41 51 53 53 61 58 59 55 59 57 56 69 79 90 75 62 45 64 76 70 63 57 52 38 39 42 43 44 51 36 24 27 30 41 38 51 51 38 44 23 346 333 321 313 310 301 305 308 295 289 301 9 9 5 303 258 264 269 276 282 278 276
113 118 110 99 89 84 75 72 71 67 50 67 67 62 58 51 45 48 54 53 41 25 18 20 22 35 61 67 72 60 53 57 57 54 48 56 55 55 55 55 59 67 70 69 64 58 53 43 41 37 32 35 40 32 27 31 35 39 54 63 48 50 39 22 3 344 337 318 298 308 299 354 26 34 39 40 21 334 270 269 269 274 273 275 277
112 95 99 99 98 87 70 64 63 62 60 65 69 65 59 52 38 41 40 35 22 4 333 345 35 43 56 50 62 73 60 58 59 54 56 53 55 57 53 58 54 52 62 66 70 66 59 48 44 44 35 20 33 40 25 22 28 27 26 48 53 64 35 13 353 345 338 338 318 313 38 76 73 49 43 40 54 60 355 300 290 269 271 273 309
123 119 110 93 82 87 87 80 71 67 65 67 72 68 56 50 46 45 33 11 351 352 10 34 43 49 58 70 54 74 78 67 65 72 66 56 51 60 62 64 76 73 66 54 51 52 54 47 36 35 31 16 28 53 38 33 31 28 23 27 40 28 9 352 350 344 346 343 345 345 354 117 68 333 324 300 274 219 194 225 220 243 252 279 314
103 114 107 102 98 94 89 73 56 66 69 79 82 77 64 53 49 35 359 333 350 11 26 48 49 50 55 59 73 72 71 74 68 67 70 66 57 63 62 56 45 46 52 54 50 43 41 37 28 29 23 1 6 38 44 39 36 33 27 19 30 23 350 339 351 360 350 349 342 329 324 334 352 341 327 314 285 245 218 242 234 238 257 276 283
114 98 94 102 92 81 73 72 53 50 57 72 85 83 75 62 52 7 329 337 358 22 42 59 54 47 49 55 60 65 65 65 67 66 75 69 61 60 54 51 52 50 47 46 44 44 43 38 28 25 14 8 354 19 46 43 37 36 27 23 14 8 342 343 352 352 338 319 316 320 313 336 335 323 318 314 310 301 262 225 240 249 253 265 279
96 101 113 103 98 92 85 72 66 61 55 55 80 82 71 61 34 327 346 354 21 35 61 63 60 64 62 54 54 55 54 58 66 70 68 67 60 62 58 53 54 56 59 57 50 48 44 41 28 16 19 12 9 10 35 32 24 26 21 12 3 354 356 342 322 321 331 327 329 333 320 314 307 304 303 302 301 300 285 293 293 287 291 275 272
117 115 106 98 107 102 92 74 62 68 66 63 68 84 71 54 357 3 12 21 28 46 58 57 60 64 74 69 58 54 56 52 46 63 70 63 56 53 56 43 51 50 50 55 53 54 52 42 26 22 14 22 17 23 19 15 15 13 8 2 354 351 355 356 346 343 347 338 317 305 302 302 302 301 298 292 288 284 278 272 274 277 281 272 275
111 108 102 102 98 94 92 85 61 61 68 66 57 67 71 41 345 20 23 38 63 63 58 51 57 61 73 86 80 66 54 48 54 55 66 58 63 56 60 45 50 55 54 53 42 41 40 41 41 27 22 23 28 29 18 10 9 0 359 354 352 360 1 355 354 352 335 319 313 312 310 314 315 310 306 308 302 302 305 297 285 276 260 244 250
124 125 118 107 105 98 94 88 79 50 69 70 71 65 73 51 40 15 33 66 73 69 64 53 53 66 73 82 87 72 65 57 55 58 58 60 57 59 61 59 54 52 47 46 39 38 32 34 41 29 23 42 50 47 28 12 2 355 357 350 355 3 359 1 9 358 346 343 333 334 323 317 319 320 314 290 289 302 307 316 324 297 275 262 246
123 125 111 107 106 109 104 97 86 71 71 69 65 63 55 52 45 31 42 70 69 67 66 58 55 59 63 53 70 85 83 71 64 66 71 63 51 54 61 54 47 38 51 50 46 44 35 25 30 39 44 53 50 51 40 13 356 353 341 339 9 18 18 2 0 352 338 318 335 350 2 19 14 17 17 17 14 8 7 1 1 359 347 331 306
131 130 123 124 125 116 116 106 103 96 85 72 68 61 49 52 47 36 53 74 71 67 66 62 64 65 62 64 61 62 65 73 71 68 60 57 55 50 59 61 49 46 34 54 59 57 58 43 45 49 50 56 38 37 28 347 325 322 336 5 30 24 8 12 352 329 329 355 11 15 11 10 12 8 7 5 3 0 359 355 357 357 349 1 4
123 120 122 122 123 125 121 115 114 108 95 89 79 64 58 54 53 49 55 71 78 75 71 70 65 63 60 60 57 54 55 59 64 62 70 67 49 60 53 51 37 38 49 19 21 70 59 24 69 53 46 53 52 19 324 325 314 332 350 21 21 6 353 12 349 352 32 38 30 23 18 12 6 5 1 360 355 352 351 350 348 348 347 354 358
135 126 127 129 133 128 122 119 124 116 101 96 80 60 66 59 62 59 64 66 74 79 73 66 65 67 65 65 60 57 49 55 61 73 77 81 58 30 32 43 48 45 82 90 62 51 51 31 36 70 58 92 96 59 316 303 340 9 32 37 34 26 19 12 6 23 50 41 30 28 21 14 8 5 7 359 354 351 351 346 343 340 343 352 353